Tracking 18844 objects as of 21-Nov-2017
HD Live streaming from Space Station
objects crossing your sky now

FENGYUN 1C DEB

Track FENGYUN 1C DEB now!
10-day predictions


NORAD ID: 29880
Int'l Code: 1999-025GA
Perigee: 766.0 km
Apogee: 1,139.2 km
Inclination: 98.2 °
Period: 104.0 minutes
Semi major axis: 7323 km
RCS: 0.0219 m2 (small)
Launch date: May 10, 1999
Source: People's Republic of China (PRC)
Launch site: Taiyaun Space Center, China (TSC)

Note: This is SATELLITE DEBRIS
aabbcc
Your satellite tracking list
Your tracking list is empty




NASA's NSSDC Master Catalog

Two Line Element Set (TLE):
1 29880U 99025GA  17324.70354295 +.00000517 +00000-0 +37883-3 0  9999
2 29880 098.1777 206.5672 0254809 351.1446 077.5323 13.85214248547368
Source of the keplerian elements: AFSPC